TimeEDT,TemperatureF,Dew PointF,Humidity,Sea Level PressureIn,VisibilityMPH,Wind Direction,Wind SpeedMPH,Gust SpeedMPH,PrecipitationIn,Events,Conditions,WindDirDegrees,DateUTC
12:51 AM,57.0,50.0,77,30.07,10.0,East,6.9,-,N/A,,Scattered Clouds,80,2013-09-09 04:51:00
1:51 AM,55.9,50.0,80,30.06,10.0,East,6.9,-,N/A,,Partly Cloudy,100,2013-09-09 05:51:00
2:51 AM,54.0,50.0,86,30.07,10.0,East,4.6,-,N/A,,Clear,80,2013-09-09 06:51:00
3:51 AM,55.9,51.1,84,30.06,10.0,East,4.6,-,N/A,,Clear,90,2013-09-09 07:51:00
4:51 AM,54.0,50.0,86,30.07,10.0,ENE,3.5,-,N/A,,Clear,70,2013-09-09 08:51:00
5:51 AM,57.9,52.0,81,30.06,10.0,ESE,5.8,-,N/A,,Scattered Clouds,120,2013-09-09 09:51:00
6:51 AM,59.0,53.1,81,30.06,10.0,ESE,4.6,-,N/A,,Overcast,120,2013-09-09 10:51:00
7:51 AM,60.1,54.0,80,30.09,10.0,SE,4.6,-,N/A,,Overcast,140,2013-09-09 11:51:00
8:51 AM,63.0,55.9,78,30.08,8.0,SSE,6.9,-,N/A,,Mostly Cloudy,150,2013-09-09 12:51:00
9:51 AM,66.9,59.0,76,30.08,7.0,South,8.1,-,N/A,,Mostly Cloudy,170,2013-09-09 13:51:00
10:51 AM,70.0,62.1,76,30.07,6.0,South,6.9,-,N/A,,Haze,190,2013-09-09 14:51:00
11:51 AM,75.0,64.9,71,30.06,5.0,SSW,9.2,-,N/A,,Haze,210,2013-09-09 15:51:00
12:51 PM,77.0,66.0,69,30.05,6.0,SSW,8.1,-,N/A,,Haze,200,2013-09-09 16:51:00
1:51 PM,79.0,66.9,66,30.04,6.0,SW,6.9,-,N/A,,Haze,220,2013-09-09 17:51:00
2:51 PM,80.1,68.0,67,30.03,7.0,South,4.6,-,N/A,,Mostly Cloudy,180,2013-09-09 18:51:00
3:51 PM,82.9,68.0,60,30.00,7.0,WSW,5.8,-,N/A,,Mostly Cloudy,240,2013-09-09 19:51:00
4:51 PM,78.1,69.1,74,30.00,4.0,WSW,6.9,16.1,0.00,Rain,Light Rain,250,2013-09-09 20:51:00
5:12 PM,77.0,69.8,78,30.01,4.0,Calm,Calm,-,0.02,Rain-Thunderstorm,Light Thunderstorms and Rain,0,2013-09-09 21:12:00
5:51 PM,77.0,71.1,82,30.00,6.0,South,6.9,-,0.02,,Overcast,180,2013-09-09 21:51:00
6:51 PM,75.9,70.0,82,30.00,4.0,SSE,3.5,-,N/A,,Mostly Cloudy,160,2013-09-09 22:51:00
7:51 PM,75.0,70.0,84,30.01,4.0,SSE,8.1,-,N/A,,Mostly Cloudy,150,2013-09-09 23:51:00
8:51 PM,75.0,70.0,84,30.01,4.0,SE,6.9,-,N/A,,Scattered Clouds,140,2013-09-10 00:51:00
9:51 PM,73.9,70.0,87,30.01,4.0,South,8.1,-,N/A,,Clear,170,2013-09-10 01:51:00
10:51 PM,75.0,69.1,82,30.02,5.0,South,9.2,-,N/A,,Clear,190,2013-09-10 02:51:00
11:51 PM,73.9,68.0,82,30.02,5.0,South,8.1,-,N/A,,Clear,190,2013-09-10 03:51:00